GW1377 Weather Reports


Display with metric or nautical units.
time (UTC)temp
F
wind
direction
speed
MPH
gust
MPH
rain 1hr
in
rain 24hr
in
rain mn
in
humidity
%
barometer
mb
20260505183543 76 273 4.0 11.0 0.00 0.00 0.00 46 1000.1
20260505183052 76 266 4.0 10.0 0.00 0.00 0.00 47 1000.3
20260505182538 76 293 4.0 10.0 0.00 0.00 0.00 47 1000.3
20260505182038 76 203 3.0 11.0 0.00 0.00 0.00 46 1000.4
20260505181548 76 293 3.0 16.0 0.00 0.00 0.00 47 1000.4
20260505181040 76 83 5.0 16.0 0.00 0.00 0.00 47 1000.5
20260505180538 76 186 4.0 16.0 0.00 0.00 0.00 46 1000.5
20260505180055 76 105 3.0 14.0 0.00 0.00 0.00 47 1000.7
20260505175541 75 243 5.0 14.0 0.00 0.00 0.00 46 1000.6
20260505175041 76 2 6.0 14.0 0.00 0.00 0.00 45 1000.7
20260505174548 76 74 3.0 12.0 0.00 0.00 0.00 46 1000.8
20260505174039 77 200 4.0 12.0 0.00 0.00 0.00 46 1000.8
20260505173539 77 14 5.0 18.0 0.00 0.00 0.00 46 1000.9
20260505173048 77 32 3.0 18.0 0.00 0.00 0.00 46 1001.1
20260505172540 77 72 4.0 12.0 0.00 0.00 0.00 46 1001.0
20260505172040 77 352 4.0 12.0 0.00 0.00 0.00 46 1001.1
20260505171551 77 215 5.0 14.0 0.00 0.00 0.00 46 1001.1
20260505171040 76 235 3.0 14.0 0.00 0.00 0.00 47 1001.3
20260505170541 76 144 3.0 16.0 0.00 0.00 0.00 47 1001.4
20260505170051 76 233 5.0 16.0 0.00 0.00 0.00 46 1001.4
20260505165540 76 289 4.0 14.0 0.00 0.00 0.00 47 1001.6
20260505165040 76 99 4.0 12.0 0.00 0.00 0.00 46 1001.5
20260505164558 76 250 3.0 10.0 0.00 0.00 0.00 48 1001.7
20260505164041 76 213 3.0 11.0 0.00 0.00 0.00 49 1001.9
20260505163540 75 285 4.0 11.0 0.00 0.00 0.00 48 1002.1
20260505163048 75 101 4.0 11.0 0.00 0.00 0.00 47 1002.1
20260505162539 74 250 3.0 13.0 0.00 0.00 0.00 48 1002.3
20260505162040 74 53 4.0 13.0 0.00 0.00 0.00 49 1002.4
20260505161555 74 74 3.0 12.0 0.00 0.00 0.00 49 1002.5
20260505161042 73 139 2.0 12.0 0.00 0.00 0.00 50 1002.6
20260505160540 72 90 3.0 12.0 0.00 0.00 0.00 51 1002.7
20260505153104 67 337 2.0 10.0 0.00 0.03 0.00 56 1003.4
20260505152543 66 108 2.0 8.0 0.00 0.03 0.00 57 1003.7
20260505152039 66 87 2.0 7.0 0.00 0.03 0.00 57 1003.7
20260505151549 66 122 3.0 8.0 0.00 0.03 0.00 56 1003.7
20260505151040 66 75 2.0 8.0 0.00 0.03 0.00 56 1003.7
20260505150540 65 313 2.0 8.0 0.00 0.03 0.00 57 1003.9
20260505140542 64 49 0.0 7.0 0.00 0.03 0.00 60 1003.7
20260505130106 57 50 0.0 3.0 0.00 0.03 0.00 67 1003.9
20260505125038 58 0 0.0 3.0 0.00 0.03 0.00 66 1003.9
20260505124614 58 0 1.0 3.0 0.00 0.03 0.00 66 1004.0
20260505124038 57 0 0.0 3.0 0.00 0.03 0.00 68 1004.0
20260505123537 56 0 0.0 3.0 0.00 0.03 0.00 70 1004.2
20260505123109 56 95 1.0 3.0 0.00 0.03 0.00 68 1004.1
20260505122538 55 83 0.0 3.0 0.00 0.03 0.00 69 1004.0
20260505122038 54 0 1.0 3.0 0.00 0.03 0.00 70 1004.1
20260505121552 55 0 0.0 3.0 0.00 0.03 0.00 72 1004.3
20260505121039 54 0 0.0 3.0 0.00 0.03 0.00 71 1004.4
20260505120539 54 86 0.0 3.0 0.00 0.03 0.00 71 1004.7
20260505115538 53 0 1.0 3.0 0.00 0.03 0.00 70 1004.5
20260505115041 53 78 1.0 2.0 0.00 0.03 0.00 71 1004.4
20260505114548 52 91 0.0 2.0 0.00 0.03 0.00 72 1004.4
20260505114038 52 99 0.0 2.0 0.00 0.03 0.00 73 1004.4
20260505113539 51 0 0.0 2.0 0.00 0.03 0.00 74 1004.5
20260505113113 51 0 0.0 2.0 0.00 0.03 0.00 74 1004.5
20260505112540 51 0 0.0 3.0 0.00 0.03 0.00 74 1004.6
20260505112040 51 0 0.0 3.0 0.00 0.03 0.00 73 1004.5
20260505111556 51 84 1.0 4.0 0.00 0.03 0.00 73 1004.4
20260505111043 51 98 1.0 4.0 0.00 0.03 0.00 73 1004.4
20260505110540 51 0 1.0 4.0 0.00 0.03 0.00 73 1004.4
20260505102040 49 81 2.0 4.0 0.00 0.03 0.00 75 1004.3
20260505101549 49 89 2.0 4.0 0.00 0.03 0.00 75 1004.2
20260505101043 49 86 2.0 4.0 0.00 0.03 0.00 75 1004.2
20260505100542 49 91 1.0 2.0 0.00 0.03 0.00 75 1004.1
20260505100055 49 98 0.0 3.0 0.00 0.03 0.00 76 1004.0
20260505095540 49 99 1.0 4.0 0.00 0.03 0.00 75 1004.1
20260505095041 49 89 1.0 4.0 0.00 0.03 0.00 76 1004.2
20260505094549 48 99 1.0 3.0 0.00 0.03 0.00 76 1004.0
20260505094040 48 95 0.0 4.0 0.00 0.03 0.00 76 1004.2
20260505093540 49 0 0.0 5.0 0.00 0.03 0.00 75 1004.2
20260505093104 49 84 2.0 5.0 0.00 0.03 0.00 75 1004.1
20260505092541 49 90 3.0 5.0 0.00 0.03 0.00 74 1004.2
20260505092041 49 103 1.0 4.0 0.00 0.03 0.00 74 1004.1
20260505091547 49 0 1.0 4.0 0.00 0.03 0.00 75 1004.2
20260505091041 49 90 2.0 3.0 0.00 0.03 0.00 75 1004.2
20260505090540 49 103 1.0 3.0 0.00 0.03 0.00 75 1004.2
20260505090050 49 92 1.0 2.0 0.00 0.03 0.00 75 1004.3
20260505085540 50 0 0.0 1.0 0.00 0.03 0.00 74 1004.3
20260505085040 50 0 0.0 1.0 0.00 0.03 0.00 73 1004.2
20260505084554 50 0 0.0 2.0 0.00 0.03 0.00 73 1004.3
20260505084040 50 0 0.0 2.0 0.00 0.03 0.00 72 1004.3
20260505083539 50 98 0.0 2.0 0.00 0.03 0.00 73 1004.4
20260505083054 50 0 0.0 2.0 0.00 0.03 0.00 73 1004.4
20260505082540 50 0 0.0 2.0 0.00 0.03 0.00 73 1004.3
20260505082040 50 0 0.0 0.0 0.00 0.03 0.00 73 1004.4
20260505081553 50 0 0.0 2.0 0.00 0.03 0.00 73 1004.5
20260505081039 50 0 0.0 2.0 0.00 0.03 0.00 73 1004.5
20260505080539 50 265 0.0 2.0 0.00 0.03 0.00 73 1004.5
20260505080054 49 70 0.0 1.0 0.00 0.03 0.00 74 1004.6
20260505075538 49 0 0.0 1.0 0.00 0.03 0.00 74 1004.6
20260505075038 49 0 0.0 1.0 0.00 0.03 0.00 74 1004.7
20260505074555 49 0 0.0 1.0 0.00 0.03 0.00 73 1004.6
20260505074038 50 0 0.0 1.0 0.00 0.03 0.00 73 1004.6
20260505073538 49 225 0.0 1.0 0.00 0.03 0.00 74 1004.6
20260505073051 49 0 0.0 0.0 0.00 0.03 0.00 74 1004.5
20260505072538 50 0 0.0 1.0 0.00 0.03 0.00 73 1004.6
20260505072038 50 0 0.0 1.0 0.00 0.03 0.00 73 1004.6
20260505071550 50 0 0.0 1.0 0.00 0.03 0.00 73 1004.6
20260505071038 50 0 0.0 1.0 0.00 0.03 0.00 74 1004.6
20260505070538 49 235 0.0 1.0 0.00 0.03 0.00 76 1004.7
20260505070052 48 0 0.0 0.0 0.00 0.03 0.00 78 1004.7
20260505065538 49 0 0.0 0.0 0.00 0.03 0.00 77 1004.7
20260505065038 49 0 0.0 0.0 0.00 0.03 0.00 77 1004.7
20260505064554 49 0 0.0 1.0 0.00 0.03 0.00 77 1004.6
20260505064038 48 0 0.0 1.0 0.00 0.03 0.00 78 1004.6
20260505063541 48 0 0.0 1.0 0.00 0.03 0.00 78 1004.7
20260505063046 48 0 0.0 1.0 0.00 0.03 0.00 79 1004.7
20260505062538 48 0 0.0 1.0 0.00 0.03 0.00 79 1004.7
20260505062036 48 0 0.0 1.0 0.00 0.03 0.00 79 1004.7
20260505061552 49 0 0.0 3.0 0.00 0.03 0.00 78 1004.7
20260505061038 49 0 0.0 3.0 0.00 0.03 0.00 78 1004.7
20260505060538 49 99 1.0 5.0 0.00 0.03 0.00 78 1004.7
20260505060046 49 93 0.0 5.0 0.00 0.03 0.00 78 1004.7
20260505055539 49 104 3.0 5.0 0.00 0.03 0.00 78 1004.9
20260505055038 49 0 0.0 0.0 0.00 0.03 0.00 77 1004.7
20260505054546 49 0 0.0 1.0 0.00 0.03 0.00 77 1004.7
20260505054040 50 0 0.0 1.0 0.00 0.03 0.00 77 1004.7
20260505053538 50 0 0.0 1.0 0.00 0.03 0.00 77 1004.5
20260505053111 50 0 0.0 1.0 0.00 0.03 0.00 76 1004.5
20260505052538 50 0 0.0 2.0 0.00 0.03 0.00 77 1004.6
20260505052041 49 0 0.0 2.0 0.00 0.03 0.00 77 1004.5
20260505051549 49 0 0.0 2.0 0.00 0.03 0.00 77 1004.6
20260505051038 49 0 0.0 0.0 0.00 0.03 0.00 76 1004.6
20260505050538 50 0 0.0 0.0 0.00 0.03 0.00 75 1004.6
20260505050103 50 0 0.0 0.0 0.00 0.03 0.00 75 1004.5
20260505041550 50 0 0.0 2.0 0.00 0.03 0.00 74 1004.4
20260505041044 51 0 0.0 2.0 0.00 0.03 0.00 73 1004.4
20260505040541 51 234 0.0 1.0 0.00 0.03 0.00 72 1004.3
20260505040058 52 0 0.0 0.0 0.00 0.03 0.00 71 1004.3
20260505035540 52 0 0.0 0.0 0.00 0.03 0.03 71 1004.3
20260505035040 52 0 0.0 1.0 0.00 0.03 0.03 70 1004.3
20260505034612 52 0 0.0 1.0 0.00 0.03 0.03 70 1004.3
20260505034040 52 0 0.0 1.0 0.00 0.03 0.03 71 1004.3
20260505033540 52 0 0.0 0.0 0.00 0.03 0.03 71 1004.3
20260505033055 52 0 0.0 0.0 0.00 0.03 0.03 71 1004.3
20260505032540 52 0 0.0 0.0 0.00 0.03 0.03 71 1004.2
20260505032039 52 0 0.0 0.0 0.00 0.03 0.03 70 1004.3
20260505031555 52 0 0.0 0.0 0.00 0.03 0.03 70 1004.3
20260505031041 53 0 0.0 1.0 0.00 0.03 0.03 69 1004.3
20260505030541 53 0 0.0 1.0 0.00 0.03 0.03 69 1004.3
20260505030051 53 0 0.0 1.0 0.00 0.03 0.03 69 1004.3
20260505025542 53 0 0.0 1.0 0.00 0.03 0.03 68 1004.3
20260505025041 54 0 0.0 1.0 0.00 0.03 0.03 68 1004.3
20260505024552 54 0 0.0 3.0 0.00 0.03 0.03 68 1004.4
20260505024041 54 100 0.0 3.0 0.00 0.03 0.03 68 1004.5
20260505023541 54 113 1.0 3.0 0.00 0.03 0.03 67 1004.5
20260505023053 54 107 0.0 1.0 0.00 0.03 0.03 68 1004.6
20260505022543 54 0 0.0 0.0 0.00 0.03 0.03 68 1004.6
20260505022040 54 0 0.0 0.0 0.00 0.03 0.03 68 1004.6
20260505021554 54 0 0.0 0.0 0.00 0.03 0.03 68 1004.7
20260505021041 54 0 0.0 0.0 0.00 0.03 0.03 67 1004.7
20260505020540 55 0 0.0 0.0 0.00 0.03 0.03 68 1004.7
20260505020057 55 0 0.0 0.0 0.00 0.03 0.03 67 1004.7
20260505015541 55 0 0.0 1.0 0.00 0.03 0.03 67 1004.7
20260505015040 54 0 0.0 1.0 0.00 0.03 0.03 68 1004.8
20260505014553 54 107 0.0 1.0 0.00 0.03 0.03 68 1004.7
20260505014041 54 0 0.0 0.0 0.00 0.03 0.03 68 1004.7
20260505013540 54 0 0.0 0.0 0.00 0.03 0.03 68 1004.6
20260505013054 55 0 0.0 1.0 0.00 0.03 0.03 67 1004.6
20260505012540 55 0 0.0 1.0 0.00 0.03 0.03 67 1004.5
20260505012040 55 0 0.0 1.0 0.00 0.03 0.03 67 1004.4
20260505011605 55 0 0.0 0.0 0.00 0.03 0.03 68 1004.4
20260505011041 55 0 0.0 1.0 0.00 0.03 0.03 67 1004.3
20260505010540 55 0 0.0 1.0 0.00 0.03 0.03 67 1004.3
20260505010050 55 0 0.0 1.0 0.00 0.03 0.03 67 1004.3
20260505005540 55 0 0.0 0.0 0.00 0.03 0.03 68 1004.2
20260505005040 54 0 0.0 0.0 0.00 0.03 0.03 69 1004.2
20260505004544 54 0 0.0 0.0 0.00 0.03 0.03 69 1004.2
20260505004040 54 0 0.0 1.0 0.00 0.03 0.03 69 1004.1
20260505003539 54 0 0.0 2.0 0.00 0.03 0.03 68 1004.0
20260505003053 54 0 0.0 2.0 0.00 0.03 0.03 68 1003.9
20260505002540 54 98 1.0 2.0 0.00 0.03 0.03 69 1003.8
20260505002040 54 243 0.0 1.0 0.00 0.03 0.03 69 1003.7
20260505001558 55 0 0.0 1.0 0.00 0.03 0.03 68 1003.6
20260505001040 55 243 0.0 1.0 0.00 0.03 0.03 68 1003.5
20260505000540 55 230 0.0 1.0 0.00 0.03 0.03 68 1003.4
20260505000105 55 0 0.0 1.0 0.00 0.03 0.03 68 1003.4
20260504235540 55 0 0.0 1.0 0.00 0.03 0.03 68 1003.3
20260504235040 55 233 0.0 2.0 0.00 0.03 0.03 68 1003.3
20260504234547 56 0 0.0 2.0 0.00 0.03 0.03 67 1003.2
20260504234040 56 219 0.0 2.0 0.00 0.03 0.03 66 1003.2
20260504233540 56 222 1.0 2.0 0.00 0.03 0.03 65 1003.1
20260504233102 56 0 0.0 3.0 0.00 0.03 0.03 65 1003.1
20260504232540 57 236 1.0 3.0 0.00 0.03 0.03 65 1003.0
20260504232036 57 231 0.0 3.0 0.00 0.03 0.03 65 1003.0
20260504231549 57 240 0.0 2.0 0.00 0.03 0.03 65 1002.9
20260504231040 57 226 1.0 5.0 0.00 0.03 0.03 64 1002.8
20260504230541 57 255 1.0 5.0 0.00 0.03 0.03 64 1002.8
20260504230049 58 238 2.0 8.0 0.00 0.03 0.03 63 1002.8
20260504225541 58 253 3.0 8.0 0.00 0.03 0.03 63 1002.7
20260504225040 58 243 2.0 9.0 0.00 0.03 0.03 62 1002.7
20260504224548 58 252 4.0 9.0 0.00 0.03 0.03 62 1002.7
20260504224040 59 264 4.0 9.0 0.00 0.03 0.03 62 1002.6
20260504223540 59 263 3.0 11.0 0.00 0.03 0.03 62 1002.6
20260504223050 59 244 5.0 11.0 0.00 0.03 0.03 62 1002.6
20260504222544 58 241 6.0 12.0 0.00 0.03 0.03 62 1002.6
20260504222111 59 250 5.0 14.0 0.00 0.03 0.03 62 1002.6
20260504221549 58 255 5.0 14.0 0.00 0.03 0.03 61 1002.6
20260504221039 58 254 8.0 14.0 0.00 0.03 0.03 61 1002.5
20260504220538 58 234 7.0 17.0 0.00 0.03 0.03 62 1002.6
20260504220051 57 248 8.0 18.0 0.00 0.03 0.03 62 1002.5
20260504215538 57 255 11.0 18.0 0.00 0.03 0.03 63 1002.6
20260504215038 57 227 9.0 15.0 0.00 0.03 0.03 63 1002.6
20260504214549 57 245 7.0 14.0 0.00 0.03 0.03 62 1002.6
20260504214038 57 229 5.0 11.0 0.00 0.03 0.03 62 1002.5
20260504213538 57 214 6.0 15.0 0.00 0.03 0.03 63 1002.6
20260504213049 57 270 6.0 17.0 0.00 0.03 0.03 64 1002.5
20260504212539 57 225 9.0 17.0 0.00 0.03 0.03 63 1002.5
20260504212038 57 233 6.0 17.0 0.00 0.03 0.03 63 1002.5
20260504211549 56 250 5.0 15.0 0.00 0.03 0.03 64 1002.4
20260504211038 56 249 5.0 15.0 0.00 0.03 0.03 64 1002.6
20260504210538 56 227 8.0 15.0 0.00 0.03 0.03 64 1002.5
20260504210052 56 227 7.0 14.0 0.00 0.03 0.03 64 1002.4
20260504205541 56 269 8.0 16.0 0.00 0.03 0.03 64 1002.4
20260504205037 56 256 9.0 16.0 0.00 0.03 0.03 64 1002.6
20260504204551 56 264 8.0 18.0 0.00 0.03 0.03 65 1002.5
20260504204038 56 239 10.0 19.0 0.00 0.03 0.03 64 1002.5
20260504203539 57 226 10.0 19.0 0.00 0.03 0.03 64 1002.4
20260504203057 57 245 6.0 16.0 0.00 0.03 0.03 64 1002.4
20260504202539 57 263 9.0 17.0 0.00 0.03 0.03 66 1002.2
20260504202043 57 238 8.0 20.0 0.00 0.03 0.03 65 1002.1
20260504201552 56 258 10.0 20.0 0.00 0.03 0.03 66 1002.1
20260504201038 55 230 11.0 18.0 0.00 0.03 0.03 67 1002.3
20260504200538 56 231 10.0 18.0 0.00 0.03 0.03 66 1002.2
20260504200100 55 229 12.0 20.0 0.00 0.03 0.03 67 1002.2
20260504195538 55 238 12.0 24.0 0.00 0.03 0.03 67 1002.2
20260504195038 55 249 13.0 24.0 0.00 0.03 0.03 67 1002.2
20260504194553 55 246 8.0 24.0 0.00 0.03 0.03 68 1002.1
20260504194038 55 251 11.0 24.0 0.00 0.03 0.03 67 1002.1
20260504193538 55 224 12.0 23.0 0.00 0.03 0.03 67 1002.2
20260504193045 55 214 15.0 23.0 0.00 0.03 0.03 68 1002.1
20260504192538 55 240 12.0 23.0 0.00 0.03 0.03 70 1001.9
20260504192038 55 242 14.0 23.0 0.00 0.03 0.03 69 1002.0
20260504191605 55 239 9.0 20.0 0.00 0.03 0.03 70 1002.2
20260504191039 55 241 11.0 20.0 0.00 0.03 0.03 71 1002.1
20260504190539 54 269 13.0 23.0 0.00 0.03 0.03 70 1002.2
20260504190049 54 236 12.0 26.0 0.00 0.03 0.03 71 1002.2
20260504185536 54 225 17.0 26.0 0.00 0.03 0.03 71 1002.1
20260504185041 54 220 12.0 23.0 0.00 0.03 0.03 72 1002.3
20260504184549 54 268 11.0 23.0 0.00 0.03 0.03 72 1002.3
20260504184038 54 238 11.0 23.0 0.00 0.03 0.03 72 1002.2